Station Historical Data
Daily Summary for April 2, 2012 Units:  Metric    English   Both
« Previous Day
Next Day »
Daily Weekly Monthly Yearly Custom
  High: Low: Average:
Temperature: 28.3 °C 16.4 °C 22.2 °C
Dew Point: 20.4 °C 15.4 °C 17.6 °C
Humidity: 94% 52% 77%
Wind Speed: 17.7km/h 0km/h 4.5km/h
Wind Gust: 19.3km/h - -
Wind- - South
Pressure: 1010.7 hPa 1006.3 hPa -
Precipitation: 0 mm    
Historical Graphs
 
 
Tabular Data for April 2, 2012
Time Temperature Dew Point Pressure Wind Wind Speed Wind Gust Humidity Rainfall Rate (Hourly) Conditions
00:00 21.3 °C 17.3 °C 1007 hPa South 9.7 km/h 11.3 km/h 78% 0 mm
00:01 21.3 °C 17.3 °C 1007 hPa South 8 km/h 9.7 km/h 78% 0 mm
00:02 21.3 °C 17.3 °C 1007 hPa SW 3.2 km/h 9.7 km/h 78% 0 mm
00:07 21.2 °C 17.4 °C 1007 hPa SSW 3.2 km/h 9.7 km/h 79% 0 mm
00:12 21.1 °C 17.3 °C 1007 hPa SW 9.7 km/h 9.7 km/h 79% 0 mm
00:17 20.9 °C 17.1 °C 1007 hPa South 6.4 km/h 9.7 km/h 79% 0 mm
00:22 20.8 °C 17.3 °C 1007 hPa SW 4.8 km/h 9.7 km/h 80% 0 mm
00:27 20.8 °C 17.3 °C 1007 hPa SSW 4.8 km/h 14.5 km/h 80% 0 mm
00:32 20.7 °C 17.2 °C 1007 hPa South 4.8 km/h 11.3 km/h 80% 0 mm
00:37 20.7 °C 17.1 °C 1006.7 hPa SSW 4.8 km/h 9.7 km/h 80% 0 mm
00:42 20.6 °C 17.2 °C 1007 hPa South 4.8 km/h 8 km/h 81% 0 mm
00:47 20.5 °C 17.1 °C 1006.7 hPa South 6.4 km/h 9.7 km/h 81% 0 mm
00:52 20.4 °C 17.1 °C 1006.7 hPa SSE 6.4 km/h 11.3 km/h 81% 0 mm
00:58 20.4 °C 17 °C 1006.7 hPa SSE 4.8 km/h 11.3 km/h 81% 0 mm
01:03 20.3 °C 16.9 °C 1006.7 hPa South 4.8 km/h 11.3 km/h 81% 0 mm
01:08 20.2 °C 17.1 °C 1006.7 hPa SSW 3.2 km/h 6.4 km/h 82% 0 mm
01:13 20.1 °C 16.9 °C 1006.7 hPa SSW 3.2 km/h 6.4 km/h 82% 0 mm
01:18 19.9 °C 16.9 °C 1006.7 hPa SSW 4.8 km/h 4.8 km/h 83% 0 mm
01:23 19.8 °C 16.9 °C 1006.7 hPa SSW 4.8 km/h 8 km/h 83% 0 mm
01:28 19.7 °C 16.9 °C 1006.7 hPa SSW 6.4 km/h 11.3 km/h 84% 0 mm
01:33 19.7 °C 16.9 °C 1006.7 hPa SSW 3.2 km/h 4.8 km/h 84% 0 mm
01:38 19.6 °C 16.8 °C 1006.7 hPa SSW 4.8 km/h 4.8 km/h 84% 0 mm
01:43 19.4 °C 16.8 °C 1006.7 hPa SW 3.2 km/h 6.4 km/h 85% 0 mm
01:48 19.4 °C 16.8 °C 1006.7 hPa SSW 1.6 km/h 8 km/h 85% 0 mm
01:53 19.3 °C 16.8 °C 1006.7 hPa SSW 6.4 km/h 6.4 km/h 85% 0 mm
01:58 19.3 °C 16.8 °C 1006.7 hPa SSE 3.2 km/h 4.8 km/h 85% 0 mm
02:03 19.3 °C 16.7 °C 1006.7 hPa SSW 4.8 km/h 4.8 km/h 85% 0 mm
02:08 19.3 °C 16.7 °C 1006.7 hPa SSW 4.8 km/h 8 km/h 85% 0 mm
02:13 19.2 °C 16.7 °C 1006.7 hPa SSW 1.6 km/h 3.2 km/h 85% 0 mm
02:18 19.1 °C 16.7 °C 1006.7 hPa SSW 3.2 km/h 4.8 km/h 86% 0 mm
02:23 18.9 °C 16.6 °C 1006.7 hPa SW 3.2 km/h 4.8 km/h 86% 0 mm
02:28 18.9 °C 16.7 °C 1006.7 hPa South 3.2 km/h 4.8 km/h 87% 0 mm
02:33 18.9 °C 16.7 °C 1006.7 hPa SE 3.2 km/h 4.8 km/h 87% 0 mm
02:38 18.8 °C 16.6 °C 1006.3 hPa SW 3.2 km/h 3.2 km/h 87% 0 mm
02:43 18.8 °C 16.6 °C 1006.7 hPa SSW 3.2 km/h 4.8 km/h 87% 0 mm
02:48 18.7 °C 16.5 °C 1006.3 hPa WSW 1.6 km/h 3.2 km/h 87% 0 mm
02:53 18.7 °C 16.7 °C 1006.3 hPa South 1.6 km/h 3.2 km/h 88% 0 mm
02:58 18.7 °C 16.7 °C 1006.3 hPa South 1.6 km/h 4.8 km/h 88% 0 mm
03:03 18.6 °C 16.6 °C 1006.3 hPa South 1.6 km/h 4.8 km/h 88% 0 mm
03:08 18.6 °C 16.6 °C 1006.3 hPa SSE 1.6 km/h 3.2 km/h 88% 0 mm
03:13 18.6 °C 16.6 °C 1006.3 hPa SSE 3.2 km/h 3.2 km/h 88% 0 mm
03:18 18.6 °C 16.6 °C 1006.3 hPa SSE 3.2 km/h 3.2 km/h 88% 0 mm
03:23 18.4 °C 16.6 °C 1006.3 hPa SSE 3.2 km/h 4.8 km/h 89% 0 mm
03:28 18.4 °C 16.6 °C 1006.3 hPa SSW 1.6 km/h 4.8 km/h 89% 0 mm
03:33 18.3 °C 16.5 °C 1006.3 hPa SSE 1.6 km/h 3.2 km/h 89% 0 mm
03:38 18.2 °C 16.4 °C 1006.3 hPa South 1.6 km/h 3.2 km/h 89% 0 mm
03:43 18.1 °C 16.4 °C 1006.3 hPa SSE 1.6 km/h 3.2 km/h 90% 0 mm
03:48 18 °C 16.3 °C 1006.3 hPa SE 3.2 km/h 3.2 km/h 90% 0 mm
03:53 18 °C 16.3 °C 1006.3 hPa SE 3.2 km/h 3.2 km/h 90% 0 mm
03:58 17.9 °C 16.3 °C 1006.3 hPa SSE 1.6 km/h 3.2 km/h 90% 0 mm
04:03 17.9 °C 16.4 °C 1006.3 hPa Calm   1.6 km/h 91% 0 mm
04:08 17.9 °C 16.4 °C 1006.3 hPa Calm   1.6 km/h 91% 0 mm
04:13 17.8 °C 16.3 °C 1006.3 hPa ESE 1.6 km/h 1.6 km/h 91% 0 mm
04:18 17.8 °C 16.3 °C 1006.3 hPa ESE 1.6 km/h 1.6 km/h 91% 0 mm
04:23 17.8 °C 16.3 °C 1006.3 hPa ESE 1.6 km/h 1.6 km/h 91% 0 mm
04:28 17.7 °C 16.2 °C 1006.3 hPa ESE 1.6 km/h 1.6 km/h 91% 0 mm
04:33 17.6 °C 16.1 °C 1006.3 hPa Calm   1.6 km/h 91% 0 mm
04:39 17.4 °C 16.1 °C 1006.3 hPa Calm   1.6 km/h 92% 0 mm
04:44 17.3 °C 16 °C 1006.3 hPa Calm     92% 0 mm
04:49 17.2 °C 15.9 °C 1006.3 hPa ESE 1.6 km/h 1.6 km/h 92% 0 mm
04:54 17.1 °C 16 °C 1006.7 hPa Calm   1.6 km/h 93% 0 mm
04:59 17.1 °C 16 °C 1006.7 hPa Calm   3.2 km/h 93% 0 mm
05:04 17 °C 15.8 °C 1006.7 hPa Calm     93% 0 mm
05:09 16.9 °C 15.7 °C 1006.7 hPa Calm     93% 0 mm
05:14 16.8 °C 15.7 °C 1006.7 hPa Calm     93% 0 mm
05:19 16.9 °C 15.9 °C 1006.7 hPa ESE 1.6 km/h 1.6 km/h 94% 0 mm
05:24 17 °C 16 °C 1006.7 hPa Calm   1.6 km/h 94% 0 mm
05:29 16.9 °C 16 °C 1006.7 hPa SE 1.6 km/h 1.6 km/h 94% 0 mm
05:34 16.8 °C 15.7 °C 1007 hPa SE 3.2 km/h 3.2 km/h 93% 0 mm
05:39 16.8 °C 15.7 °C 1007 hPa SE 3.2 km/h 3.2 km/h 93% 0 mm
05:44 16.8 °C 15.8 °C 1007 hPa SE 3.2 km/h 3.2 km/h 94% 0 mm
05:49 16.9 °C 15.9 °C 1007 hPa SE 3.2 km/h 3.2 km/h 94% 0 mm
05:54 17 °C 16 °C 1007 hPa ESE 1.6 km/h 3.2 km/h 94% 0 mm
05:59 17.1 °C 15.9 °C 1007.3 hPa ESE 1.6 km/h 1.6 km/h 93% 0 mm
06:04 16.9 °C 15.7 °C 1007.3 hPa ESE 1.6 km/h 3.2 km/h 93% 0 mm
06:09 16.7 °C 15.6 °C 1007.3 hPa SE 1.6 km/h 1.6 km/h 93% 0 mm
06:14 16.7 °C 15.6 °C 1007.3 hPa East 1.6 km/h 1.6 km/h 93% 0 mm
06:19 16.7 °C 15.6 °C 1007.7 hPa East 1.6 km/h 1.6 km/h 93% 0 mm
06:24 16.7 °C 15.6 °C 1007.7 hPa Calm   1.6 km/h 93% 0 mm
06:29 16.5 °C 15.4 °C 1007.7 hPa East 1.6 km/h 1.6 km/h 93% 0 mm
06:34 16.4 °C 15.5 °C 1007.7 hPa Calm   1.6 km/h 94% 0 mm
06:39 16.4 °C 15.5 °C 1007.7 hPa Calm   1.6 km/h 94% 0 mm
06:44 16.4 °C 15.5 °C 1008 hPa East 1.6 km/h 1.6 km/h 94% 0 mm
06:49 16.4 °C 15.5 °C 1008 hPa ESE 1.6 km/h 1.6 km/h 94% 0 mm
06:54 16.4 °C 15.4 °C 1008 hPa SE 1.6 km/h 1.6 km/h 94% 0 mm
06:59 16.4 °C 15.4 °C 1008.4 hPa SE 1.6 km/h 1.6 km/h 94% 0 mm
07:04 16.5 °C 15.6 °C 1008.4 hPa SE 1.6 km/h 1.6 km/h 94% 0 mm
07:10 16.7 °C 15.7 °C 1008.4 hPa SSE 3.2 km/h 3.2 km/h 94% 0 mm
07:15 16.8 °C 15.9 °C 1008.4 hPa SSE 1.6 km/h 3.2 km/h 94% 0 mm
07:20 17.1 °C 16.1 °C 1008.4 hPa SW 3.2 km/h 4.8 km/h 94% 0 mm
07:25 17.2 °C 16.2 °C 1008.7 hPa SSW 1.6 km/h 1.6 km/h 94% 0 mm
07:30 17.2 °C 16.2 °C 1008.7 hPa SSW 1.6 km/h 3.2 km/h 94% 0 mm
07:35 17.3 °C 16.3 °C 1008.4 hPa Calm   3.2 km/h 94% 0 mm
07:40 17.3 °C 16.4 °C 1008.7 hPa South 1.6 km/h 4.8 km/h 94% 0 mm
07:42 17.3 °C 16.4 °C 1008.7 hPa SSE 1.6 km/h 3.2 km/h 94% 0 mm
07:47 17.3 °C 16.4 °C 1008.7 hPa South 3.2 km/h 3.2 km/h 94% 0 mm
07:52 17.3 °C 16.4 °C 1008.7 hPa South 3.2 km/h 4.8 km/h 94% 0 mm
07:57 17.3 °C 16.2 °C 1008.7 hPa SE 3.2 km/h 3.2 km/h 93% 0 mm
07:58 17.3 °C 16.4 °C 1008.7 hPa SSE 1.6 km/h 3.2 km/h 94% 0 mm
08:03 17.4 °C 16.4 °C 1009 hPa SSE 4.8 km/h 4.8 km/h 94% 0 mm
08:08 17.5 °C 16.6 °C 1009 hPa South 3.2 km/h 4.8 km/h 94% 0 mm
08:13 17.6 °C 16.4 °C 1009.4 hPa SSE 3.2 km/h 4.8 km/h 93% 0 mm
08:18 17.7 °C 16.6 °C 1009.4 hPa SE 1.6 km/h 3.2 km/h 93% 0 mm
08:23 17.8 °C 16.7 °C 1009.4 hPa South 4.8 km/h 6.4 km/h 93% 0 mm
08:28 18 °C 16.8 °C 1009.4 hPa South 3.2 km/h 6.4 km/h 93% 0 mm
08:33 18.2 °C 17.1 °C 1009.4 hPa South 6.4 km/h 6.4 km/h 93% 0 mm
08:38 18.5 °C 17.3 °C 1009.7 hPa South 4.8 km/h 6.4 km/h 93% 0 mm
08:43 18.7 °C 17.3 °C 1009.4 hPa SSW 4.8 km/h 11.3 km/h 92% 0 mm
08:48 18.9 °C 17.6 °C 1009.7 hPa SW 3.2 km/h 6.4 km/h 92% 0 mm
08:53 19.1 °C 17.8 °C 1009.7 hPa South 6.4 km/h 6.4 km/h 92% 0 mm
08:58 19.3 °C 17.8 °C 1009.7 hPa South 3.2 km/h 9.7 km/h 91% 0 mm
09:03 19.3 °C 17.8 °C 1009.7 hPa SW 6.4 km/h 6.4 km/h 91% 0 mm
09:08 19.3 °C 17.8 °C 1010 hPa SW 4.8 km/h 8 km/h 91% 0 mm
09:13 19.4 °C 17.9 °C 1010 hPa SSW 4.8 km/h 9.7 km/h 91% 0 mm
09:18 19.5 °C 18 °C 1010 hPa SW 4.8 km/h 8 km/h 91% 0 mm
09:23 19.6 °C 18.1 °C 1010 hPa SW 4.8 km/h 6.4 km/h 91% 0 mm
09:28 19.8 °C 18.2 °C 1010 hPa SSW 6.4 km/h 9.7 km/h 90% 0 mm
09:33 20 °C 18.3 °C 1010 hPa SSW 4.8 km/h 11.3 km/h 90% 0 mm
09:38 20.3 °C 18.4 °C 1010 hPa SW 6.4 km/h 9.7 km/h 89% 0 mm
09:43 20.4 °C 18.5 °C 1010 hPa WSW 9.7 km/h 12.9 km/h 89% 0 mm
09:48 20.4 °C 18.5 °C 1010.4 hPa SW 12.9 km/h 12.9 km/h 89% 0 mm
09:53 20.4 °C 18.4 °C 1010.4 hPa SW 8 km/h 12.9 km/h 88% 0 mm
09:59 20.6 °C 18.7 °C 1010.4 hPa WSW 6.4 km/h 9.7 km/h 89% 0 mm
10:04 20.8 °C 18.8 °C 1010.4 hPa SSW 6.4 km/h 12.9 km/h 88% 0 mm
10:09 20.9 °C 18.7 °C 1010.4 hPa WSW 4.8 km/h 12.9 km/h 87% 0 mm
10:14 21.1 °C 18.9 °C 1010.4 hPa WSW 4.8 km/h 8 km/h 87% 0 mm
10:19 21.2 °C 18.9 °C 1010.4 hPa WSW 3.2 km/h 8 km/h 87% 0 mm
10:24 21.3 °C 19.2 °C 1010.4 hPa WSW 6.4 km/h 9.7 km/h 88% 0 mm
10:29 21.3 °C 18.8 °C 1010.4 hPa SSW 6.4 km/h 16.1 km/h 86% 0 mm
10:34 21.4 °C 18.9 °C 1010.4 hPa SW 3.2 km/h 11.3 km/h 86% 0 mm
10:39 21.8 °C 19.3 °C 1010.4 hPa WSW 6.4 km/h 6.4 km/h 86% 0 mm
10:44 21.9 °C 19.4 °C 1010.4 hPa SW 8 km/h 9.7 km/h 86% 0 mm
10:49 22.1 °C 19.4 °C 1010.4 hPa West 11.3 km/h 12.9 km/h 85% 0 mm
10:54 22.1 °C 19.3 °C 1010.4 hPa WSW 9.7 km/h 14.5 km/h 84% 0 mm
10:59 22.4 °C 20 °C 1010.4 hPa WSW 3.2 km/h 9.7 km/h 86% 0 mm
11:04 22.8 °C 20 °C 1010.4 hPa SW 11.3 km/h 11.3 km/h 84% 0 mm
11:09 22.9 °C 19.7 °C 1010.4 hPa WSW 12.9 km/h 12.9 km/h 82% 0 mm
11:14 22.8 °C 19.4 °C 1010.4 hPa WSW 6.4 km/h 11.3 km/h 81% 0 mm
11:19 23.1 °C 19.8 °C 1010.4 hPa West 4.8 km/h 11.3 km/h 82% 0 mm
11:24 23.3 °C 19.6 °C 1010.4 hPa SW 17.7 km/h 17.7 km/h 80% 0 mm
11:29 23.2 °C 19.6 °C 1010.4 hPa West 9.7 km/h 19.3 km/h 80% 0 mm
11:35 23.2 °C 19.6 °C 1010.4 hPa SW 12.9 km/h 12.9 km/h 80% 0 mm
11:40 23.4 °C 19.7 °C 1010.4 hPa SW 12.9 km/h 12.9 km/h 80% 0 mm
11:45 23.5 °C 19.7 °C 1010.4 hPa SW 4.8 km/h 17.7 km/h 79% 0 mm
11:50 23.9 °C 20.1 °C 1010.4 hPa WNW 4.8 km/h 16.1 km/h 79% 0 mm
11:55 23.9 °C 19.6 °C 1010.4 hPa SW 8 km/h 14.5 km/h 77% 0 mm
12:00 24.1 °C 20.1 °C 1010.4 hPa WSW 9.7 km/h 11.3 km/h 78% 0 mm
12:06 24.3 °C 20 °C 1010.4 hPa SW 6.4 km/h 14.5 km/h 77% 0 mm
12:11 24.3 °C 19.4 °C 1010.4 hPa WSW 12.9 km/h 12.9 km/h 74% 0 mm
12:16 24.3 °C 19.6 °C 1010.4 hPa SW 12.9 km/h 14.5 km/h 75% 0 mm
12:21 24.5 °C 19.8 °C 1010.4 hPa WSW 3.2 km/h 11.3 km/h 75% 0 mm
12:26 24.6 °C 19.8 °C 1010.4 hPa SW 4.8 km/h 17.7 km/h 75% 0 mm
12:31 24.6 °C 19.4 °C 1010 hPa WNW 11.3 km/h 17.7 km/h 73% 0 mm
12:36 24.9 °C 19.5 °C 1010 hPa SSW 12.9 km/h 16.1 km/h 72% 0 mm
12:41 24.9 °C 19.3 °C 1010 hPa WNW 8 km/h 12.9 km/h 71% 0 mm
12:47 25 °C 19.4 °C 1010 hPa West 8 km/h 16.1 km/h 71% 0 mm
12:52 25.1 °C 19.9 °C 1010 hPa North 8 km/h 8 km/h 73% 0 mm
12:57 25.4 °C 19.5 °C 1010 hPa SW 6.4 km/h 12.9 km/h 70% 0 mm
13:02 25.4 °C 18.9 °C 1009.7 hPa South 4.8 km/h 12.9 km/h 67% 0 mm
13:07 25.6 °C 19.4 °C 1010 hPa SSW 6.4 km/h 12.9 km/h 69% 0 mm
13:12 25.8 °C 19 °C 1010 hPa WSW 9.7 km/h 16.1 km/h 66% 0 mm
13:17 25.6 °C 19.3 °C 1010 hPa SW 8 km/h 12.9 km/h 68% 0 mm
13:22 25.4 °C 19.3 °C 1009.7 hPa WNW 3.2 km/h 4.8 km/h 69% 0 mm
13:27 25.7 °C 19.3 °C 1009.7 hPa SW 4.8 km/h 16.1 km/h 68% 0 mm
13:33 26 °C 19.7 °C 1010 hPa West 8 km/h 12.9 km/h 68% 0 mm
13:38 26.1 °C 19 °C 1010 hPa SE 1.6 km/h 9.7 km/h 65% 0 mm
13:43 26.4 °C 19.1 °C 1010 hPa SW 3.2 km/h 9.7 km/h 64% 0 mm
13:48 26.4 °C 18.8 °C 1009.7 hPa SSE 8 km/h 11.3 km/h 63% 0 mm
13:53 26.4 °C 19.1 °C 1010 hPa West 11.3 km/h 12.9 km/h 64% 0 mm
13:58 26.4 °C 19.1 °C 1009.7 hPa SW 3.2 km/h 9.7 km/h 64% 0 mm
14:04 26.5 °C 18.9 °C 1009.7 hPa SW 4.8 km/h 6.4 km/h 63% 0 mm
14:09 26.6 °C 18.7 °C 1009.7 hPa SSE 1.6 km/h 12.9 km/h 62% 0 mm
14:14 27 °C 19.1 °C 1009.7 hPa West 11.3 km/h 11.3 km/h 62% 0 mm
14:19 27 °C 19.1 °C 1009.7 hPa South 4.8 km/h 6.4 km/h 62% 0 mm
14:24 27.2 °C 19 °C 1009.4 hPa NW 4.8 km/h 9.7 km/h 61% 0 mm
14:29 27 °C 18.6 °C 1009.4 hPa NW 3.2 km/h 9.7 km/h 60% 0 mm
14:34 26.9 °C 18.8 °C 1009.4 hPa NNE 1.6 km/h 6.4 km/h 61% 0 mm
14:39 27 °C 18.3 °C 1009.4 hPa NNE 4.8 km/h 6.4 km/h 59% 0 mm
14:44 27.2 °C 18.8 °C 1009.4 hPa Calm   6.4 km/h 60% 0 mm
14:50 27.7 °C 18.7 °C 1009.4 hPa WNW 6.4 km/h 6.4 km/h 58% 0 mm
14:56 27.5 °C 18.2 °C 1009 hPa West 6.4 km/h 11.3 km/h 57% 0 mm
15:01 27.3 °C 20.4 °C 1009 hPa WNW 1.6 km/h 6.4 km/h 66% 0 mm
15:06 27.6 °C 18.6 °C 1009 hPa SE 4.8 km/h 6.4 km/h 58% 0 mm
15:11 27.6 °C 18.8 °C 1009 hPa East 4.8 km/h 6.4 km/h 59% 0 mm
15:16 27.5 °C 18.5 °C 1008.7 hPa East 8 km/h 8 km/h 58% 0 mm
15:22 27.4 °C 19.3 °C 1008.7 hPa South 3.2 km/h 4.8 km/h 61% 0 mm
15:27 27.8 °C 18.3 °C 1008.7 hPa West 8 km/h 8 km/h 56% 0 mm
15:32 27.9 °C 19.2 °C 1008.4 hPa SW 8 km/h 8 km/h 59% 0 mm
15:37 28 °C 18.1 °C 1008.7 hPa West 6.4 km/h 8 km/h 55% 0 mm
15:42 28 °C 17.8 °C 1008.4 hPa WNW 3.2 km/h 6.4 km/h 54% 0 mm
15:47 27.9 °C 17.5 °C 1008.4 hPa WSW 4.8 km/h 9.7 km/h 53% 0 mm
15:52 28 °C 18.4 °C 1008.4 hPa WSW 6.4 km/h 6.4 km/h 56% 0 mm
15:57 28.3 °C 18.4 °C 1008.4 hPa SSE 8 km/h 12.9 km/h 55% 0 mm
16:02 28.2 °C 18.6 °C 1008.4 hPa SSE 9.7 km/h 11.3 km/h 56% 0 mm
16:07 28.3 °C 19.2 °C 1008.4 hPa SSE 8 km/h 12.9 km/h 58% 0 mm
16:12 28.2 °C 17.4 °C 1008 hPa WSW 3.2 km/h 8 km/h 52% 0 mm
16:17 28.2 °C 18.1 °C 1008 hPa East 4.8 km/h 4.8 km/h 54% 0 mm
16:22 28.1 °C 18.2 °C 1008 hPa SE 6.4 km/h 8 km/h 55% 0 mm
16:27 28.2 °C 18.1 °C 1008 hPa SSE 11.3 km/h 12.9 km/h 54% 0 mm
16:32 28.2 °C 17.7 °C 1008 hPa Calm   8 km/h 53% 0 mm
16:38 28.3 °C 18.4 °C 1008 hPa SSE 12.9 km/h 14.5 km/h 55% 0 mm
16:43 28.1 °C 17.9 °C 1007.7 hPa SE 4.8 km/h 12.9 km/h 54% 0 mm
16:48 28.1 °C 18.5 °C 1007.7 hPa SE 4.8 km/h 9.7 km/h 56% 0 mm
16:53 28.2 °C 18.9 °C 1007.7 hPa South 11.3 km/h 11.3 km/h 57% 0 mm
16:58 28.3 °C 18.2 °C 1007.7 hPa SSW 9.7 km/h 12.9 km/h 54% 0 mm
16:59 28.3 °C 18.9 °C 1007.7 hPa WSW 8 km/h 11.3 km/h 57% 0 mm
17:04 28.2 °C 18.8 °C 1007.7 hPa SSE 9.7 km/h 12.9 km/h 57% 0 mm
17:09 28.1 °C 17.9 °C 1007.7 hPa SW 11.3 km/h 16.1 km/h 54% 0 mm
17:14 28.1 °C 18.4 °C 1007.7 hPa SE 9.7 km/h 12.9 km/h 56% 0 mm
17:19 28.1 °C 17.9 °C 1007.7 hPa SE 6.4 km/h 12.9 km/h 54% 0 mm
17:24 28.1 °C 19.1 °C 1007.7 hPa SSW 6.4 km/h 16.1 km/h 58% 0 mm
17:30 28.2 °C 18.9 °C 1007.3 hPa SE 9.7 km/h 12.9 km/h 57% 0 mm
17:35 28.1 °C 18.5 °C 1007.3 hPa SE 14.5 km/h 14.5 km/h 56% 0 mm
17:40 28 °C 18.7 °C 1007.3 hPa SE 9.7 km/h 14.5 km/h 57% 0 mm
17:45 27.9 °C 19.2 °C 1007.3 hPa SSE 9.7 km/h 11.3 km/h 59% 0 mm
17:46 27.9 °C 18 °C 1007.3 hPa SSE 6.4 km/h 9.7 km/h 55% 0 mm
17:51 28.1 °C 18.2 °C 1007.3 hPa SW 4.8 km/h 8 km/h 55% 0 mm
17:56 28 °C 18.4 °C 1007.3 hPa SSE 8 km/h 17.7 km/h 56% 0 mm
18:01 27.8 °C 18.8 °C 1007 hPa SSE 6.4 km/h 11.3 km/h 58% 0 mm
18:06 27.8 °C 19.1 °C 1007 hPa SE 11.3 km/h 17.7 km/h 59% 0 mm
18:11 27.6 °C 18.3 °C 1007 hPa SE 8 km/h 14.5 km/h 57% 0 mm
18:16 27.4 °C 18.4 °C 1006.7 hPa SE 9.7 km/h 12.9 km/h 58% 0 mm
18:22 27.5 °C 18.2 °C 1006.7 hPa ESE 11.3 km/h 12.9 km/h 57% 0 mm
18:27 27.3 °C 18.3 °C 1006.7 hPa ESE 6.4 km/h 11.3 km/h 58% 0 mm
18:32 27.3 °C 19.1 °C 1006.7 hPa SSE 3.2 km/h 9.7 km/h 61% 0 mm
18:37 27.3 °C 18.3 °C 1006.7 hPa SSE 8 km/h 8 km/h 58% 0 mm
18:42 27.4 °C 18.1 °C 1006.7 hPa SSE 4.8 km/h 8 km/h 57% 0 mm
18:47 27.4 °C 18.2 °C 1006.7 hPa SE 3.2 km/h 4.8 km/h 57% 0 mm
18:52 27.5 °C 17.9 °C 1007 hPa SSE 4.8 km/h 6.4 km/h 56% 0 mm
18:57 27.4 °C 17.3 °C 1007 hPa SSE 4.8 km/h 6.4 km/h 54% 0 mm
19:02 27.4 °C 17.6 °C 1007 hPa SSE 3.2 km/h 4.8 km/h 55% 0 mm
19:07 27.3 °C 17.8 °C 1007 hPa SSE 3.2 km/h 6.4 km/h 56% 0 mm
19:12 27.3 °C 18.3 °C 1007.3 hPa SSE 1.6 km/h 4.8 km/h 58% 0 mm
19:17 27.2 °C 17.9 °C 1007.3 hPa SSE 1.6 km/h 4.8 km/h 57% 0 mm
19:22 27.2 °C 17.4 °C 1007.3 hPa SSE 3.2 km/h 4.8 km/h 55% 0 mm
19:27 27.1 °C 17.6 °C 1007.7 hPa SSE 4.8 km/h 4.8 km/h 56% 0 mm
19:32 27 °C 17.8 °C 1007.7 hPa SSE 3.2 km/h 3.2 km/h 57% 0 mm
19:38 26.8 °C 17.6 °C 1007.7 hPa SSE 3.2 km/h 4.8 km/h 57% 0 mm
19:43 26.4 °C 17.8 °C 1008 hPa SSE 1.6 km/h 3.2 km/h 59% 0 mm
19:48 26.1 °C 17.7 °C 1008 hPa SSE 1.6 km/h 3.2 km/h 60% 0 mm
19:53 25.8 °C 17.4 °C 1008 hPa South 1.6 km/h 3.2 km/h 60% 0 mm
19:58 25.5 °C 17.7 °C 1008.4 hPa SSE 1.6 km/h 3.2 km/h 62% 0 mm
20:03 25 °C 17.5 °C 1008.7 hPa SSE 3.2 km/h 3.2 km/h 63% 0 mm
20:08 24.8 °C 17.5 °C 1008.7 hPa South 3.2 km/h 4.8 km/h 64% 0 mm
20:13 24.6 °C 17.6 °C 1008.7 hPa South 3.2 km/h 4.8 km/h 65% 0 mm
20:18 24.4 °C 17.7 °C 1009 hPa SSE 1.6 km/h 4.8 km/h 66% 0 mm
20:23 24.2 °C 17.7 °C 1009 hPa South 1.6 km/h 3.2 km/h 67% 0 mm
20:28 24.1 °C 17.6 °C 1009.4 hPa SSE 6.4 km/h 6.4 km/h 67% 0 mm
20:33 23.9 °C 17.7 °C 1009.4 hPa SE 3.2 km/h 4.8 km/h 68% 0 mm
20:38 23.7 °C 17.7 °C 1009.4 hPa SE 1.6 km/h 3.2 km/h 69% 0 mm
20:39 23.6 °C 17.6 °C 1009.4 hPa Calm   1.6 km/h 69% 0 mm
20:44 23.3 °C 17.6 °C 1009.4 hPa ESE 3.2 km/h 3.2 km/h 70% 0 mm
20:49 23.2 °C 17.6 °C 1009.4 hPa SE 1.6 km/h 3.2 km/h 71% 0 mm
20:54 23 °C 17.4 °C 1009.4 hPa ESE 3.2 km/h 3.2 km/h 71% 0 mm
20:59 23.1 °C 17.5 °C 1009.4 hPa East 3.2 km/h 4.8 km/h 71% 0 mm
21:04 22.8 °C 17.5 °C 1009.4 hPa East 1.6 km/h 3.2 km/h 72% 0 mm
21:09 22.5 °C 17.4 °C 1009.4 hPa Calm   1.6 km/h 73% 0 mm
21:14 22.4 °C 17.6 °C 1009.4 hPa SE 1.6 km/h 1.6 km/h 74% 0 mm
21:19 22.4 °C 17.6 °C 1009.7 hPa SE 1.6 km/h 1.6 km/h 74% 0 mm
21:24 22.3 °C 17.5 °C 1009.7 hPa SSE 1.6 km/h 3.2 km/h 74% 0 mm
21:29 22.3 °C 17.5 °C 1009.7 hPa Calm   1.6 km/h 74% 0 mm
21:34 22.3 °C 17.5 °C 1009.7 hPa SSE 1.6 km/h 3.2 km/h 74% 0 mm
21:39 22.3 °C 17.5 °C 1009.7 hPa SSE 3.2 km/h 3.2 km/h 74% 0 mm
21:44 22.4 °C 17.6 °C 1009.7 hPa SE 3.2 km/h 3.2 km/h 74% 0 mm
21:49 22.4 °C 17.6 °C 1010 hPa SE 1.6 km/h 1.6 km/h 74% 0 mm
21:55 22.3 °C 17.5 °C 1010 hPa SE 1.6 km/h 3.2 km/h 74% 0 mm
22:00 22.4 °C 17.7 °C 1010 hPa SE 3.2 km/h 3.2 km/h 75% 0 mm
22:05 22.4 °C 17.6 °C 1010 hPa SSE 3.2 km/h 3.2 km/h 74% 0 mm
22:10 22.4 °C 17.4 °C 1010 hPa SE 1.6 km/h 3.2 km/h 73% 0 mm
22:15 22.3 °C 17.3 °C 1010.4 hPa SE 3.2 km/h 3.2 km/h 73% 0 mm
22:20 22.3 °C 17.3 °C 1010.4 hPa SSE 3.2 km/h 6.4 km/h 73% 0 mm
22:25 22.3 °C 17.3 °C 1010.4 hPa Calm   4.8 km/h 73% 0 mm
22:30 22.2 °C 17.2 °C 1010.4 hPa SSE 1.6 km/h 1.6 km/h 73% 0 mm
22:35 22.2 °C 17.3 °C 1010.4 hPa SE 1.6 km/h 1.6 km/h 74% 0 mm
22:40 22.1 °C 17 °C 1010.4 hPa SE 1.6 km/h 1.6 km/h 73% 0 mm
22:46 22 °C 16.9 °C 1010.4 hPa Calm   1.6 km/h 73% 0 mm
22:51 21.9 °C 16.8 °C 1010.4 hPa Calm   1.6 km/h 73% 0 mm
22:56 21.7 °C 16.9 °C 1010.4 hPa Calm   1.6 km/h 74% 0 mm
23:01 21.5 °C 16.9 °C 1010.4 hPa SSE 1.6 km/h 1.6 km/h 75% 0 mm
23:06 21.3 °C 16.7 °C 1010.7 hPa SSW 3.2 km/h 3.2 km/h 75% 0 mm
23:11 21.2 °C 16.8 °C 1010.7 hPa South 8 km/h 8 km/h 76% 0 mm
23:16 21.3 °C 16.7 °C 1010.7 hPa South 1.6 km/h 9.7 km/h 75% 0 mm
23:21 21.4 °C 16.6 °C 1010.7 hPa SSW 6.4 km/h 6.4 km/h 74% 0 mm
23:26 21.2 °C 16.6 °C 1010.7 hPa SW 3.2 km/h 4.8 km/h 75% 0 mm
23:31 21.1 °C 16.7 °C 1010.7 hPa SW 4.8 km/h 6.4 km/h 76% 0 mm
23:36 21 °C 16.8 °C 1010.7 hPa WSW 3.2 km/h 4.8 km/h 77% 0 mm
23:42 20.9 °C 16.8 °C 1010.4 hPa SW 1.6 km/h 4.8 km/h 77% 0 mm
23:47 20.8 °C 16.6 °C 1010.4 hPa SSW 1.6 km/h 1.6 km/h 77% 0 mm
23:52 20.5 °C 16.6 °C 1010.4 hPa Calm     78% 0 mm
23:57 20.3 °C 16.5 °C 1010.4 hPa Calm     79% 0 mm
Compliments of Weather Underground